INMARSAT 4-F3

导读

INMARSAT 4-F3(海事卫星I-4 F3)是国际海事卫星组织(Inmarsat)第四代移动卫星通信系统的第三颗卫星,于2008年8月18日在哈萨克斯坦拜科努尔航天中心由质子M型火箭成功发射。由欧洲宇航防务集团Astrium建造,属于Eurostar 3000型号,发射重量约6吨。它的成功发射标志着Inmarsat完成全球无缝宽带移动卫星通信覆盖,可为航海、航空及偏远地区提供稳定的语音与宽带数据服务,助力应急通信与全球互联互通。

Basic Information
目录编号:
33278
目录名称:
INMARSAT 4-F3
国际标识:
2008-039A
轨道中心:
EARTH
卫星名称:
INMARSAT 4-F3
卫星全名:
--
卫星状态:
在轨 (已飞行6552 天)
发射日期:
2008-08-18 UTC
国别 :
(Inmarsat)
星等 :
--
Orbit Information
数据来源 国际轨道数据 AOE轨道数据
星历时间 2026-07-27T20:19:35+0800
11小时前
查看轨道信息
2026-07-27T12:00:00+0800
19小时前
查看轨道信息
半长轴 42164.756km 42164.924km
偏心率 0.0002522 0.0002578
轨道倾角 4.329° 4.329°
近地点辐角 106.817° 105.414°
升交点赤经 31.711° 31.726°
平近点角 253.550° 129.701°
近地点 35775.985km 35775.916km
远地点 35797.253km 35797.658km
周期 1436.098分钟 1436.107分钟
每日圈数 1.002717 1.002711
Detailed Information
使用方式:
暂无
2D Orbit Map
3D Orbit Map
Orbit Altitude Analysis Chart
Orbit Inclination Analysis Chart
Orbit Comprehensive Analysis Chart
View Comprehensive Chart